Location: Unspecified
(0.0000°N, 0.0000°E)
Time: 12:51:06
(UTC+00:00)

Vanguard 2 - Pass Details

Date: 21 September 2019
Orbit: 554 x 2937 km, 32.9° (Epoch: 13 October)

Event Time Altitude Azimuth Distance (km) Brightness Sun altitude
Rises 11:58:16 0° 289° (WNW) 2,710 10.4 88.5°
Reaches altitude 10° 12:00:29 10° 279° (W) 1,838 9.7 88.0°
Maximum altitude 12:04:12 35° 211° (SSW) 993 8.7 87.2°
Drops below altitude 10° 12:08:51 10° 144° (SE) 2,316 10.1 86.0°
Sets 12:11:59 0° 136° (SE) 3,548 10.9 85.2°
